Seinajoki, Finland

7:28 PM EET on February 08, 2016 (GMT +0200)
Seinajoki

Weather History for EFSI - December, 2012

Change the Weather History Date:

Friday, December 28, 2012

  Actual Average Record
Temperature  
Mean Temperature 8 °F -  
Max Temperature 19 °F - - ()
Min Temperature -5 °F - - ()
Degree Days  
Heating Degree Days 56    
Moisture  
Dew Point 8 °F    
Average Humidity 94    
Maximum Humidity 100    
Minimum Humidity 85    
Precipitation  
Precipitation 0.00 in - - ()
Sea Level Pressure  
Sea Level Pressure 29.53 in    
Wind  
Wind Speed 3 mph ()    
Max Wind Speed 10 mph    
Max Gust Speed -    
Visibility 5.5 miles    
Events Fog , Snow    
T = Trace of Precipitation, MM = Missing Value Source: Averaged Metar Reports

Daily Weather History Graph

Daily Weather History Graph

Search for Another Location

Airport or City:

Trip Planner

Search our weather history database for the weather conditions in past years. The results will help you decide how hot, cold, wet, or windy it might be!

Date:

Astronomy

Dec. 28, 2012 Rise Set
Actual Time 10:01 AM EET 2:59 PM EET
Civil Twilight 8:53 AM EET 4:07 PM EET
Nautical Twilight 7:49 AM EET 5:11 PM EET
Astronomical Twilight 6:53 AM EET 6:07 PM EET
Moon 3:42 PM EET (12/28) 9:21 AM EET (12/28)
Length of Visible Light 7h 14m
Length of Day
4h 57m
Full, 100% of the Moon is Illuminated
Dec 28
Full
Dec 28
Full
Jan 5
Last Quarter
Jan 11
New
Jan 19
First Quarter

Hourly Weather History & Observations

Time (EET) Temp. Windchill Dew Point Humidity Pressure Visibility Wind Dir Wind Speed Gust Speed Precip Events Conditions
12:20 AM 19.4 °F - 17.6 °F 93% 29.24 in - SW 2.3 mph - N/A   Clear
12:50 AM 14.0 °F - 12.2 °F 93% 29.24 in 3.1 mi Variable 1.2 mph - N/A   Mostly Cloudy
1:20 AM 8.6 °F - 8.6 °F 100% 29.24 in 0.1 mi SSE 2.3 mph - N/A Fog Light Freezing Fog
1:50 AM 8.6 °F - 8.6 °F 100% 29.24 in 3.1 mi South 1.2 mph - N/A   Clear
2:20 AM 5.0 °F - 1.4 °F 85% 29.24 in - South 2.3 mph - N/A   Clear
2:50 AM 5.0 °F - 3.2 °F 92% 29.27 in - SE 2.3 mph - N/A   Clear
3:20 AM 3.2 °F - 1.4 °F 92% 29.27 in - SSW 1.2 mph - N/A   Clear
3:50 AM -0.4 °F - -2.2 °F 92% 29.27 in - SW 1.2 mph - N/A   Clear
4:20 AM -0.4 °F - -2.2 °F 92% 29.27 in - SW 2.3 mph - N/A   Clear
4:50 AM -0.4 °F -8.3 °F -4.0 °F 85% 29.27 in - ESE 3.5 mph - N/A   Clear
5:20 AM -0.4 °F - -2.2 °F 92% 29.30 in - Variable 1.2 mph - N/A   Clear
5:50 AM -2.2 °F - -4.0 °F 92% 29.30 in - South 1.2 mph - N/A   Clear
6:20 AM -0.4 °F - -2.2 °F 92% 29.30 in 6.2 mi ESE 2.3 mph - N/A   Mostly Cloudy
6:50 AM 5.0 °F - 3.2 °F 92% 29.33 in 6.2 mi Variable 1.2 mph - N/A   Mostly Cloudy
7:20 AM 6.8 °F - 5.0 °F 92% 29.33 in 6.2 mi SE 2.3 mph - N/A   Overcast
7:50 AM 10.4 °F - 8.6 °F 92% 29.33 in 6.2 mi Calm Calm - N/A   Overcast
8:20 AM 12.2 °F - 10.4 °F 92% 29.36 in 6.2 mi Variable 1.2 mph - N/A   Overcast
8:50 AM 12.2 °F - 10.4 °F 92% 29.36 in 6.2 mi SW 1.2 mph - N/A   Mostly Cloudy
9:20 AM 8.6 °F - 6.8 °F 92% 29.39 in 6.2 mi Variable 1.2 mph - N/A   Partly Cloudy
9:50 AM 6.8 °F - 5.0 °F 92% 29.42 in 6.2 mi West 1.2 mph - N/A   Partly Cloudy
10:20 AM 6.8 °F - 5.0 °F 92% 29.42 in 6.2 mi NW 1.2 mph - N/A   Mostly Cloudy
10:50 AM 8.6 °F - 6.8 °F 92% 29.44 in 6.2 mi West 2.3 mph - N/A   Mostly Cloudy
11:20 AM 8.6 °F 2.0 °F 8.6 °F 100% 29.47 in 6.2 mi West 3.5 mph - N/A   Mostly Cloudy
11:50 AM 19.4 °F 9.5 °F 19.4 °F 100% 29.47 in 6.2 mi WNW 8.1 mph - N/A   Overcast
12:20 PM 19.4 °F 11.5 °F 19.4 °F 100% 29.50 in 6.2 mi WNW 5.8 mph - N/A   Mostly Cloudy
12:50 PM 19.4 °F 9.5 °F 17.6 °F 93% 29.53 in 6.2 mi WNW 8.1 mph - N/A   Mostly Cloudy
1:20 PM 19.4 °F 8.6 °F 19.4 °F 100% 29.56 in 5.6 mi WNW 9.2 mph - N/A   Overcast
1:50 PM 19.4 °F 7.9 °F 17.6 °F 93% 29.59 in 3.1 mi WNW 10.4 mph - N/A   Overcast
2:20 PM 17.6 °F 7.3 °F 17.6 °F 100% 29.59 in 4.3 mi WNW 8.1 mph - N/A   Overcast
3:20 PM 17.6 °F 6.4 °F 17.6 °F 100% 29.65 in 6.2 mi WNW 9.2 mph - N/A   Overcast
3:50 PM 17.6 °F 5.7 °F 15.8 °F 93% 29.68 in 6.2 mi WNW 10.4 mph - N/A   Overcast
4:20 PM 17.6 °F 5.7 °F 15.8 °F 93% 29.68 in 6.2 mi WNW 10.4 mph - N/A   Overcast
4:50 PM 15.8 °F 6.1 °F 15.8 °F 100% 29.71 in 6.2 mi NW 6.9 mph - N/A Snow Light Snow Grains
5:20 PM 15.8 °F 5.1 °F 15.8 °F 100% 29.74 in 6.2 mi WNW 8.1 mph - N/A Snow Light Snow Grains
5:50 PM 15.8 °F 4.2 °F 14.0 °F 93% 29.77 in 6.2 mi WNW 9.2 mph - N/A Snow Light Snow Grains
6:20 PM 14.0 °F 3.9 °F 14.0 °F 100% 29.77 in 6.2 mi WNW 6.9 mph - N/A   Mostly Cloudy
6:50 PM 12.2 °F 4.3 °F 12.2 °F 100% 29.80 in - West 4.6 mph - N/A   Clear
7:20 PM 8.6 °F - 8.6 °F 100% 29.80 in - WNW 2.3 mph - N/A   Clear
7:50 PM 10.4 °F 4.0 °F 8.6 °F 92% 29.83 in - West 3.5 mph - N/A   Clear
8:20 PM 10.4 °F 4.0 °F 8.6 °F 92% 29.83 in - WSW 3.5 mph - N/A   Clear
8:50 PM 10.4 °F 2.2 °F 8.6 °F 92% 29.86 in - WSW 4.6 mph - N/A   Clear
9:20 PM 6.8 °F - 5.0 °F 92% 29.86 in - SW 2.3 mph - N/A   Clear
9:50 PM 5.0 °F - 3.2 °F 92% 29.89 in - Variable 1.2 mph - N/A   Clear
10:20 PM 1.4 °F - -0.4 °F 92% 29.89 in - Calm Calm - N/A   Clear
10:50 PM -2.2 °F - -4.0 °F 92% 29.92 in - WSW 1.2 mph - N/A   Clear
11:20 PM -2.2 °F - -4.0 °F 92% 29.92 in - East 1.2 mph - N/A   Clear
11:50 PM -5.8 °F - -7.6 °F 92% 29.92 in - SW 1.2 mph - N/A   Clear